Time,TemperatureF,DewpointF,PressureIn,WindDirection,WindDirectionDegrees,WindSpeedMPH,WindSpeedGustMPH,Humidity,HourlyPrecipIn,Conditions,Clouds,dailyrainin,SoftwareType,DateUTC
2013-09-11 00:13:00,83.0,-99.9,-100.00,SSW,200,3.0,9.0,-999,0.00,,,0.00,,2013-09-11 05:13:00,
2013-09-11 00:23:00,83.0,-99.9,-100.00,SSW,200,3.0,9.0,-999,0.00,,,0.00,,2013-09-11 05:23:00,
2013-09-11 00:43:00,82.0,-99.9,-100.00,SSW,212,4.0,7.0,-999,0.00,,,0.00,,2013-09-11 05:43:00,
2013-09-11 00:53:00,82.0,-99.9,-100.00,SSW,212,4.0,7.0,-999,0.00,,,0.00,,2013-09-11 05:53:00,
2013-09-11 01:12:00,82.0,-99.9,-100.00,SSW,202,6.0,8.0,-999,0.00,,,0.00,,2013-09-11 06:12:00,
2013-09-11 01:22:00,82.0,-99.9,-100.00,SSW,202,6.0,8.0,-999,0.00,,,0.00,,2013-09-11 06:22:00,
2013-09-11 01:42:00,82.0,-99.9,-100.00,SSW,203,5.0,8.0,-999,0.00,,,0.00,,2013-09-11 06:42:00,
2013-09-11 01:52:00,82.0,-99.9,-100.00,SSW,203,5.0,8.0,-999,0.00,,,0.00,,2013-09-11 06:52:00,
2013-09-11 02:12:00,82.0,-99.9,-100.00,SW,228,6.0,8.0,-999,0.00,,,0.00,,2013-09-11 07:12:00,
2013-09-11 02:24:00,82.0,-99.9,-100.00,SW,228,6.0,8.0,-999,0.00,,,0.00,,2013-09-11 07:24:00,
2013-09-11 02:42:00,83.0,-99.9,-100.00,SW,233,8.0,10.0,-999,0.00,,,0.00,,2013-09-11 07:42:00,
2013-09-11 02:53:00,83.0,-99.9,-100.00,SW,233,8.0,10.0,-999,0.00,,,0.00,,2013-09-11 07:53:00,
2013-09-11 03:03:00,83.0,-99.9,-100.00,SW,233,8.0,10.0,-999,0.00,,,0.00,,2013-09-11 08:03:00,
2013-09-11 03:22:00,82.0,-99.9,-100.00,WSW,238,9.0,13.0,-999,0.00,,,0.00,,2013-09-11 08:22:00,
2013-09-11 03:42:00,82.0,-99.9,-100.00,WSW,243,7.0,10.0,-999,0.00,,,0.00,,2013-09-11 08:42:00,
2013-09-11 03:52:00,82.0,-99.9,-100.00,WSW,243,7.0,10.0,-999,0.00,,,0.00,,2013-09-11 08:52:00,
2013-09-11 04:12:00,81.0,-99.9,-100.00,WSW,241,8.0,10.0,-999,0.00,,,0.00,,2013-09-11 09:12:00,
2013-09-11 04:22:00,81.0,-99.9,-100.00,WSW,241,8.0,10.0,-999,0.00,,,0.00,,2013-09-11 09:22:00,
2013-09-11 04:43:00,80.0,-99.9,-100.00,WSW,239,6.0,10.0,-999,0.00,,,0.00,,2013-09-11 09:43:00,
2013-09-11 04:53:00,80.0,-99.9,-100.00,WSW,239,6.0,10.0,-999,0.00,,,0.00,,2013-09-11 09:53:00,
2013-09-11 05:13:00,79.0,-99.9,-100.00,WSW,246,7.0,11.0,-999,0.00,,,0.00,,2013-09-11 10:13:00,
2013-09-11 05:23:00,79.0,-99.9,-100.00,WSW,246,7.0,11.0,-999,0.00,,,0.00,,2013-09-11 10:23:00,
2013-09-11 05:43:00,79.0,-99.9,-100.00,WSW,248,8.0,11.0,-999,0.00,,,0.00,,2013-09-11 10:43:00,
2013-09-11 05:53:00,79.0,-99.9,-100.00,WSW,248,8.0,11.0,-999,0.00,,,0.00,,2013-09-11 10:53:00,
2013-09-11 06:12:00,78.0,-99.9,-100.00,WSW,239,7.0,9.0,-999,0.00,,,0.00,,2013-09-11 11:12:00,
2013-09-11 06:22:00,78.0,-99.9,-100.00,WSW,239,7.0,9.0,-999,0.00,,,0.00,,2013-09-11 11:22:00,
2013-09-11 06:42:00,78.0,-99.9,-100.00,West,263,8.0,12.0,-999,0.00,,,0.00,,2013-09-11 11:42:00,
2013-09-11 06:52:00,78.0,-99.9,-100.00,West,263,8.0,12.0,-999,0.00,,,0.00,,2013-09-11 11:52:00,
2013-09-11 07:11:00,78.0,-99.9,-100.00,West,262,8.0,10.0,-999,0.00,,,0.00,,2013-09-11 12:11:00,
2013-09-11 07:22:00,78.0,-99.9,-100.00,West,262,8.0,10.0,-999,0.00,,,0.00,,2013-09-11 12:22:00,
2013-09-11 07:32:00,78.0,-99.9,-100.00,West,262,8.0,10.0,-999,0.00,,,0.00,,2013-09-11 12:32:00,
2013-09-11 07:52:00,77.0,-99.9,-100.00,West,268,8.0,10.0,-999,0.00,,,0.00,,2013-09-11 12:52:00,
2013-09-11 08:02:00,77.0,-99.9,-100.00,West,268,8.0,10.0,-999,0.00,,,0.00,,2013-09-11 13:02:00,
2013-09-11 08:22:00,78.0,-99.9,-100.00,West,281,6.0,9.0,-999,0.00,,,0.00,,2013-09-11 13:22:00,
2013-09-11 08:42:00,78.0,-99.9,-100.00,West,275,7.0,10.0,-999,0.00,,,0.00,,2013-09-11 13:42:00,
2013-09-11 08:53:00,78.0,-99.9,-100.00,West,275,7.0,10.0,-999,0.00,,,0.00,,2013-09-11 13:53:00,
2013-09-11 09:11:00,78.0,-99.9,-100.00,WNW,296,7.0,10.0,-999,0.00,,,0.00,,2013-09-11 14:11:00,
2013-09-11 09:22:00,78.0,-99.9,-100.00,WNW,296,7.0,10.0,-999,0.00,,,0.00,,2013-09-11 14:22:00,
2013-09-11 09:42:00,79.0,-99.9,-100.00,WNW,294,5.0,7.0,-999,0.00,,,0.00,,2013-09-11 14:42:00,
2013-09-11 09:52:00,79.0,-99.9,-100.00,WNW,294,5.0,7.0,-999,0.00,,,0.00,,2013-09-11 14:52:00,
2013-09-11 10:02:00,79.0,-99.9,-100.00,WNW,294,5.0,7.0,-999,0.00,,,0.00,,2013-09-11 15:02:00,
2013-09-11 10:22:00,82.0,-99.9,-100.00,West,260,3.0,5.0,-999,0.00,,,0.00,,2013-09-11 15:22:00,
2013-09-11 10:43:00,83.0,-99.9,-100.00,WNW,295,0.0,0.0,-999,0.00,,,0.00,,2013-09-11 15:43:00,
2013-09-11 10:54:00,83.0,-99.9,-100.00,WNW,295,0.0,0.0,-999,0.00,,,0.00,,2013-09-11 15:54:00,
2013-09-11 11:03:00,83.0,-99.9,-100.00,WNW,295,0.0,0.0,-999,0.00,,,0.00,,2013-09-11 16:03:00,
2013-09-11 11:53:00,85.0,-99.9,-100.00,WNW,296,2.0,4.0,-999,0.00,,,0.00,,2013-09-11 16:53:00,
2013-09-11 12:13:00,84.0,-99.9,-100.00,WNW,299,5.0,7.0,-999,0.00,,,0.00,,2013-09-11 17:13:00,
2013-09-11 12:24:00,84.0,-99.9,-100.00,WNW,299,5.0,7.0,-999,0.00,,,0.00,,2013-09-11 17:24:00,
2013-09-11 12:43:00,84.0,-99.9,-100.00,WNW,294,6.0,9.0,-999,0.00,,,0.00,,2013-09-11 17:43:00,
2013-09-11 12:52:00,84.0,-99.9,-100.00,WNW,294,6.0,9.0,-999,0.00,,,0.00,,2013-09-11 17:52:00,
2013-09-11 13:02:00,84.0,-99.9,-100.00,WNW,294,6.0,9.0,-999,0.00,,,0.00,,2013-09-11 18:02:00,
2013-09-11 13:22:00,85.0,-99.9,-100.00,WNW,296,5.0,8.0,-999,0.00,,,0.00,,2013-09-11 18:22:00,
2013-09-11 13:42:00,83.0,-99.9,-100.00,WNW,287,7.0,10.0,-999,0.00,,,0.00,,2013-09-11 18:42:00,
2013-09-11 13:52:00,83.0,-99.9,-100.00,WNW,287,7.0,10.0,-999,0.00,,,0.00,,2013-09-11 18:52:00,
2013-09-11 14:10:00,84.0,-99.9,-100.00,West,266,6.0,9.0,-999,0.00,,,-99.99,,2013-09-11 19:10:00,
2013-09-11 14:12:00,85.0,-99.9,-100.00,WNW,284,8.0,12.0,-999,0.00,,,0.00,,2013-09-11 19:12:00,
2013-09-11 14:22:00,85.0,-99.9,-100.00,WNW,284,8.0,12.0,-999,0.00,,,0.00,,2013-09-11 19:22:00,
2013-09-11 14:42:00,84.0,-99.9,-100.00,West,266,6.0,9.0,-999,0.00,,,-99.99,,2013-09-11 19:42:00,
2013-09-11 14:53:00,84.0,-99.9,-100.00,West,266,6.0,9.0,-999,0.00,,,-99.99,,2013-09-11 19:53:00,
2013-09-11 15:03:00,84.0,-99.9,-100.00,West,266,6.0,9.0,-999,0.00,,,-99.99,,2013-09-11 20:03:00,
2013-09-11 15:42:00,83.0,-99.9,-100.00,West,265,8.0,13.0,-999,0.00,,,0.00,,2013-09-11 20:42:00,
2013-09-11 15:52:00,83.0,-99.9,-100.00,West,265,8.0,13.0,-999,0.00,,,0.00,,2013-09-11 20:52:00,
2013-09-11 16:02:00,83.0,-99.9,-100.00,West,265,8.0,13.0,-999,0.00,,,0.00,,2013-09-11 21:02:00,
2013-09-11 16:22:00,79.0,-99.9,-100.00,WNW,287,11.0,14.0,-999,0.00,,,0.00,,2013-09-11 21:22:00,
2013-09-11 16:44:00,76.0,-99.9,-100.00,West,272,6.0,8.0,-999,0.01,,,0.01,,2013-09-11 21:44:00,
2013-09-11 16:55:00,76.0,-99.9,-100.00,West,272,6.0,8.0,-999,0.01,,,0.01,,2013-09-11 21:55:00,
2013-09-11 17:14:00,76.0,-99.9,-100.00,West,280,6.0,8.0,-999,0.02,,,0.02,,2013-09-11 22:14:00,
2013-09-11 17:24:00,76.0,-99.9,-100.00,West,280,6.0,8.0,-999,0.02,,,0.02,,2013-09-11 22:24:00,
2013-09-11 17:43:00,75.0,-99.9,-100.00,West,264,11.0,14.0,-999,0.01,,,0.02,,2013-09-11 22:43:00,
2013-09-11 17:54:00,75.0,-99.9,-100.00,West,264,11.0,14.0,-999,0.01,,,0.02,,2013-09-11 22:54:00,
2013-09-11 18:03:00,75.0,-99.9,-100.00,West,264,11.0,14.0,-999,0.01,,,0.02,,2013-09-11 23:03:00,
2013-09-11 18:10:00,76.0,-99.9,-100.00,WNW,289,4.0,5.0,-999,0.00,,,0.02,,2013-09-11 23:10:00,
2013-09-11 18:22:00,75.0,-99.9,-100.00,West,280,4.0,7.0,-999,0.00,,,0.02,,2013-09-11 23:22:00,
2013-09-11 18:34:00,75.0,-99.9,-100.00,West,280,4.0,7.0,-999,0.00,,,0.02,,2013-09-11 23:34:00,
2013-09-11 18:53:00,76.0,-99.9,-100.00,WNW,289,4.0,5.0,-999,0.00,,,0.02,,2013-09-11 23:53:00,
2013-09-11 19:01:00,76.0,-99.9,-100.00,WNW,289,4.0,5.0,-999,0.00,,,0.02,,2013-09-12 00:01:00,
2013-09-11 19:42:00,76.0,-99.9,-100.00,WNW,288,4.0,5.0,-999,0.00,,,0.02,,2013-09-12 00:42:00,
2013-09-11 19:52:00,76.0,-99.9,-100.00,WNW,288,4.0,5.0,-999,0.00,,,0.02,,2013-09-12 00:52:00,
2013-09-11 20:11:00,76.0,-99.9,-100.00,West,268,3.0,4.0,-999,0.00,,,0.02,,2013-09-12 01:11:00,
2013-09-11 20:23:00,76.0,-99.9,-100.00,West,268,3.0,4.0,-999,0.00,,,0.02,,2013-09-12 01:23:00,
2013-09-11 20:32:00,76.0,-99.9,-100.00,West,268,3.0,4.0,-999,0.00,,,0.02,,2013-09-12 01:32:00,
2013-09-11 20:40:00,76.0,-99.9,-100.00,West,262,5.0,7.0,-999,0.00,,,0.02,,2013-09-12 01:40:00,
2013-09-11 20:52:00,76.0,-99.9,-100.00,WNW,286,2.0,3.0,-999,0.00,,,0.02,,2013-09-12 01:52:00,
2013-09-11 21:03:00,76.0,-99.9,-100.00,WNW,286,2.0,3.0,-999,0.00,,,0.02,,2013-09-12 02:03:00,
2013-09-11 21:22:00,76.0,-99.9,-100.00,West,262,5.0,7.0,-999,0.00,,,0.02,,2013-09-12 02:22:00,
2013-09-11 21:33:00,76.0,-99.9,-100.00,West,262,5.0,7.0,-999,0.00,,,0.02,,2013-09-12 02:33:00,
2013-09-11 22:11:00,76.0,-99.9,-100.00,West,266,4.0,6.0,-999,0.00,,,0.02,,2013-09-12 03:11:00,
2013-09-11 22:22:00,76.0,-99.9,-100.00,West,266,4.0,6.0,-999,0.00,,,0.02,,2013-09-12 03:22:00,
2013-09-11 22:45:00,75.0,-99.9,-100.00,WNW,296,3.0,4.0,-999,0.00,,,0.02,,2013-09-12 03:45:00,
2013-09-11 22:55:00,75.0,-99.9,-100.00,WNW,296,3.0,4.0,-999,0.00,,,0.02,,2013-09-12 03:55:00,
2013-09-11 23:05:00,75.0,-99.9,-100.00,WNW,296,3.0,4.0,-999,0.00,,,0.02,,2013-09-12 04:05:00,
2013-09-11 23:24:00,75.0,-99.9,-100.00,NW,309,4.0,5.0,-999,0.00,,,0.02,,2013-09-12 04:24:00,
2013-09-11 23:44:00,76.0,-99.9,-100.00,WNW,291,5.0,6.0,-999,0.00,,,0.02,,2013-09-12 04:44:00,
2013-09-11 23:54:00,76.0,-99.9,-100.00,WNW,291,5.0,6.0,-999,0.00,,,0.02,,2013-09-12 04:54:00,